RLTS YMES-YMES

Flight info

Callsign RLTS
Flight time 1h 8m
Altitude 6000
Route ESL DCT WSL DCT ESL
Aircraft PC21/L-SDFGRWY/S

Departure

Time 2026-04-30 10:48
Airport RAAF Base East Sale (YMES)

Arrival

Time 2026-04-30 11:56
Airport RAAF Base East Sale (YMES)
Time Latitude Longitude Altitude Speed Heading
2026-04-30 10:33 -38.09901 147.13594 26 ft 0 kts 188°
2026-04-30 10:42 -38.09914 147.13591 29 ft 3 kts 194°
2026-04-30 10:42 -38.09911 147.13569 26 ft 5 kts 356°
2026-04-30 10:42 -38.09871 147.13571 27 ft 5 kts 313°
2026-04-30 10:43 -38.09862 147.13503 26 ft 11 kts 278°
2026-04-30 10:43 -38.09821 147.13469 26 ft 8 kts
2026-04-30 10:43 -38.09769 147.13418 25 ft 12 kts 281°
2026-04-30 10:43 -38.09756 147.13307 23 ft 13 kts 279°
2026-04-30 10:44 -38.09741 147.13182 22 ft 16 kts 279°
2026-04-30 10:44 -38.09723 147.13034 20 ft 17 kts 278°
2026-04-30 10:44 -38.09705 147.12892 21 ft 13 kts 278°
2026-04-30 10:44 -38.09667 147.12829 22 ft 6 kts 347°
2026-04-30 10:45 -38.09656 147.12828 23 ft 0 kts
2026-04-30 10:45 -38.09635 147.12832 25 ft 10 kts
2026-04-30 10:46 -38.09576 147.12880 23 ft 10 kts 85°
2026-04-30 10:46 -38.09584 147.12968 23 ft 4 kts 98°
2026-04-30 10:46 -38.09585 147.12977 23 ft 0 kts 98°
2026-04-30 10:47 -38.09590 147.13017 22 ft 29 kts 98°
2026-04-30 10:47 -38.09667 147.13634 27 ft 110 kts 99°
2026-04-30 10:47 -38.09818 147.14822 194 ft 158 kts 99°
2026-04-30 10:47 -38.10035 147.16408 575 ft 201 kts 99°
2026-04-30 10:48 -38.10276 147.18211 1275 ft 207 kts 98°
2026-04-30 10:48 -38.10558 147.20016 1914 ft 214 kts 107°
2026-04-30 10:48 -38.11497 147.21509 2328 ft 235 kts 150°
2026-04-30 10:48 -38.13147 147.21643 2667 ft 252 kts 202°
2026-04-30 10:49 -38.14286 147.20000 2947 ft 257 kts 255°
2026-04-30 10:49 -38.14280 147.17712 3104 ft 267 kts 279°
2026-04-30 10:49 -38.14008 147.15328 3187 ft 278 kts 280°
2026-04-30 10:49 -38.13691 147.12873 3289 ft 285 kts 280°
2026-04-30 10:50 -38.13332 147.10371 3369 ft 289 kts 284°
2026-04-30 10:50 -38.12769 147.07939 3425 ft 291 kts 290°
2026-04-30 10:50 -38.12102 147.05482 3490 ft 291 kts 290°
2026-04-30 10:50 -38.11421 147.03098 3514 ft 291 kts 291°
2026-04-30 10:51 -38.10696 147.00697 3528 ft 291 kts 292°
2026-04-30 10:51 -38.09967 146.98298 3527 ft 291 kts 290°
2026-04-30 10:51 -38.09852 146.95767 3474 ft 295 kts 253°
2026-04-30 10:51 -38.11064 146.93696 3278 ft 302 kts 216°
2026-04-30 10:52 -38.12897 146.92331 3046 ft 306 kts 209°
2026-04-30 10:52 -38.14787 146.91093 2922 ft 306 kts 199°
2026-04-30 10:52 -38.16843 146.91355 2479 ft 312 kts 145°
2026-04-30 10:52 -38.17799 146.93705 1828 ft 314 kts 85°
2026-04-30 10:53 -38.16680 146.95916 1425 ft 311 kts 27°
2026-04-30 10:53 -38.14531 146.96448 822 ft 319 kts
2026-04-30 10:53 -38.12682 146.97227 1898 ft 262 kts 53°
2026-04-30 10:53 -38.13076 146.99141 2278 ft 271 kts 158°
2026-04-30 10:54 -38.14467 146.97907 1629 ft 297 kts 272°
2026-04-30 10:54 -38.13826 146.96422 1039 ft 305 kts 323°
2026-04-30 10:54 -38.12073 146.94837 924 ft 267 kts 326°
2026-04-30 10:54 -38.12323 146.94928 2858 ft 3 kts 345°
2026-04-30 10:55 -38.11431 146.94272 486 ft 317 kts 327°
2026-04-30 10:55 -38.11071 146.92097 1475 ft 270 kts 224°
2026-04-30 10:55 -38.12665 146.92379 1287 ft 276 kts 115°
2026-04-30 10:55 -38.12592 146.94880 535 ft 299 kts 78°
2026-04-30 10:56 -38.12407 146.96070 3845 ft 84 kts 257°
2026-04-30 10:56 -38.12495 146.95720 1324 ft 215 kts 77°
2026-04-30 10:56 -38.12064 146.98251 531 ft 298 kts 77°
2026-04-30 10:56 -38.11986 147.00153 3163 ft 192 kts 118°
2026-04-30 10:57 -38.12081 147.02074 710 ft 307 kts 80°
2026-04-30 10:57 -38.13046 147.04039 1093 ft 289 kts 174°
2026-04-30 10:57 -38.14360 147.02475 1268 ft 287 kts 268°
2026-04-30 10:57 -38.13890 147.00039 1377 ft 285 kts 290°
2026-04-30 10:58 -38.13234 146.97677 1474 ft 283 kts 291°
2026-04-30 10:58 -38.12555 146.95346 1618 ft 278 kts 292°
2026-04-30 10:58 -38.12547 146.93001 1786 ft 278 kts 239°
2026-04-30 10:58 -38.14199 146.91999 1743 ft 278 kts 168°
2026-04-30 10:59 -38.15511 146.93586 1652 ft 272 kts 103°
2026-04-30 10:59 -38.15217 146.95892 1430 ft 272 kts 56°
2026-04-30 10:59 -38.13773 146.97403 1501 ft 272 kts 33°
2026-04-30 10:59 -38.12540 146.99120 1517 ft 274 kts 73°
2026-04-30 11:00 -38.13109 147.01311 1465 ft 284 kts 145°
2026-04-30 11:00 -38.14980 147.01201 1459 ft 291 kts 219°
2026-04-30 11:00 -38.15514 146.98886 1554 ft 284 kts 289°
2026-04-30 11:00 -38.14154 146.97265 1720 ft 279 kts 342°
2026-04-30 11:01 -38.12289 146.96533 1715 ft 280 kts 345°
2026-04-30 11:01 -38.10663 146.95303 1766 ft 286 kts 295°
2026-04-30 11:01 -38.11340 146.93232 1675 ft 292 kts 196°
2026-04-30 11:01 -38.13024 146.94335 786 ft 307 kts 120°
2026-04-30 11:02 -38.13942 146.96448 2160 ft 99 kts 117°
2026-04-30 11:02 -38.13784 146.95821 3720 ft 89 kts 289°
2026-04-30 11:02 -38.14410 146.97362 467 ft 314 kts 114°
2026-04-30 11:02 -38.14109 146.99572 1394 ft 269 kts 26°
2026-04-30 11:03 -38.12552 146.98594 677 ft 306 kts 289°
2026-04-30 11:03 -38.12171 146.95949 897 ft 271 kts 280°
2026-04-30 11:03 -38.11604 146.94426 3182 ft 194 kts 315°
2026-04-30 11:04 -38.11983 146.90169 1541 ft 274 kts 191°
2026-04-30 11:04 -38.13341 146.91410 1413 ft 276 kts 99°
2026-04-30 11:04 -38.13367 146.93940 802 ft 296 kts 88°
2026-04-30 11:04 -38.13363 146.95533 3677 ft 54 kts 265°
2026-04-30 11:05 -38.13441 146.94940 2120 ft 132 kts 91°
2026-04-30 11:05 -38.13499 146.97445 738 ft 293 kts 93°
2026-04-30 11:05 -38.14590 146.98965 2183 ft 259 kts 185°
2026-04-30 11:05 -38.15393 146.97165 1705 ft 285 kts 294°
2026-04-30 11:06 -38.13961 146.95347 992 ft 304 kts 324°
2026-04-30 11:06 -38.12326 146.93781 1564 ft 206 kts 325°
2026-04-30 11:06 -38.12576 146.93941 4008 ft 113 kts 144°
2026-04-30 11:06 -38.11609 146.93067 648 ft 313 kts 325°
2026-04-30 11:07 -38.10751 146.90978 1581 ft 280 kts 250°
2026-04-30 11:07 -38.12373 146.90204 1074 ft 294 kts 149°
2026-04-30 11:07 -38.13131 146.92477 833 ft 292 kts 90°
2026-04-30 11:07 -38.13104 146.94977 973 ft 276 kts 88°
2026-04-30 11:08 -38.13042 146.97385 999 ft 271 kts 87°
2026-04-30 11:08 -38.13026 146.99754 1201 ft 270 kts 97°
2026-04-30 11:08 -38.14208 147.01499 1357 ft 283 kts 164°
2026-04-30 11:08 -38.16032 147.00786 1349 ft 290 kts 227°
2026-04-30 11:09 -38.16585 146.98388 1291 ft 291 kts 279°
2026-04-30 11:09 -38.15454 146.96438 1365 ft 279 kts 337°
2026-04-30 11:09 -38.13628 146.96523 1659 ft 270 kts 32°
2026-04-30 11:09 -38.12789 146.98509 1680 ft 277 kts 97°
2026-04-30 11:10 -38.14170 147.00014 1540 ft 293 kts 179°
2026-04-30 11:10 -38.15690 146.98557 1594 ft 292 kts 256°
2026-04-30 11:10 -38.14894 146.96438 1321 ft 289 kts 339°
2026-04-30 11:10 -38.12863 146.96361 776 ft 301 kts
2026-04-30 11:11 -38.10783 146.96632 642 ft 299 kts
2026-04-30 11:11 -38.08730 146.96983 527 ft 297 kts
2026-04-30 11:11 -38.07828 146.97160 3833 ft 91 kts 184°
2026-04-30 11:11 -38.08052 146.97147 1129 ft 241 kts
2026-04-30 11:12 -38.06294 146.98204 682 ft 291 kts 69°
2026-04-30 11:12 -38.07317 146.99848 724 ft 287 kts 185°
2026-04-30 11:12 -38.08815 146.98311 697 ft 289 kts 247°
2026-04-30 11:12 -38.08741 146.95866 746 ft 285 kts 300°
2026-04-30 11:13 -38.07354 146.94185 1188 ft 266 kts 327°
2026-04-30 11:13 -38.05722 146.93594 1873 ft 251 kts 26°
2026-04-30 11:13 -38.05118 146.95573 1527 ft 279 kts 105°
2026-04-30 11:13 -38.06632 146.97062 786 ft 309 kts 173°
2026-04-30 11:14 -38.08782 146.96813 594 ft 308 kts 187°
2026-04-30 11:14 -38.10779 146.96288 1255 ft 275 kts 210°
2026-04-30 11:14 -38.11932 146.94380 1568 ft 281 kts 241°
2026-04-30 11:14 -38.12975 146.92281 1831 ft 284 kts 224°
2026-04-30 11:15 -38.14789 146.92075 1597 ft 289 kts 139°
2026-04-30 11:15 -38.15110 146.94418 1137 ft 292 kts 65°
2026-04-30 11:15 -38.13524 146.95941 818 ft 298 kts 15°
2026-04-30 11:15 -38.11468 146.96374 617 ft 299 kts
2026-04-30 11:16 -38.09439 146.96759 523 ft 296 kts
2026-04-30 11:16 -38.07680 146.97100 2174 ft 86 kts
2026-04-30 11:16 -38.08120 146.96997 3621 ft 76 kts 185°
2026-04-30 11:16 -38.06777 146.97153 539 ft 306 kts 347°
2026-04-30 11:17 -38.06095 146.95078 588 ft 295 kts 234°
2026-04-30 11:17 -38.07894 146.94864 610 ft 286 kts 144°
2026-04-30 11:17 -38.08872 146.96949 609 ft 282 kts 89°
2026-04-30 11:17 -38.07926 146.98944 919 ft 268 kts 43°
2026-04-30 11:18 -38.06574 147.00458 1701 ft 250 kts 39°
2026-04-30 11:18 -38.06069 147.03942 1622 ft 292 kts 151°
2026-04-30 11:18 -38.08122 147.03935 1147 ft 311 kts 204°
2026-04-30 11:19 -38.09518 147.01935 883 ft 313 kts 256°
2026-04-30 11:19 -38.09350 146.99203 555 ft 314 kts 281°
2026-04-30 11:19 -38.08977 146.96526 444 ft 307 kts 280°
2026-04-30 11:19 -38.08898 146.95752 3766 ft 124 kts 103°
2026-04-30 11:20 -38.08885 146.95375 570 ft 304 kts 280°
2026-04-30 11:20 -38.07498 146.93975 904 ft 278 kts
2026-04-30 11:20 -38.05915 146.95239 804 ft 281 kts 59°
2026-04-30 11:20 -38.05623 146.97645 852 ft 280 kts 92°
2026-04-30 11:21 -38.05760 147.00090 1056 ft 273 kts 97°
2026-04-30 11:21 -38.06718 147.02108 1086 ft 284 kts 150°
2026-04-30 11:21 -38.08622 147.01935 979 ft 294 kts 217°
2026-04-30 11:21 -38.09324 146.99595 548 ft 305 kts 278°
2026-04-30 11:22 -38.08991 146.96965 572 ft 293 kts 279°
2026-04-30 11:22 -38.08698 146.94483 609 ft 281 kts 278°
2026-04-30 11:22 -38.08390 146.92082 952 ft 272 kts 281°
2026-04-30 11:22 -38.07762 146.90005 1829 ft 247 kts 324°
2026-04-30 11:23 -38.06291 146.90471 1439 ft 270 kts 69°
2026-04-30 11:23 -38.06836 146.92790 711 ft 300 kts 124°
2026-04-30 11:23 -38.07963 146.94627 4130 ft 115 kts 298°
2026-04-30 11:24 -38.08529 146.95527 444 ft 316 kts 120°
2026-04-30 11:24 -38.08414 146.98039 599 ft 297 kts 51°
2026-04-30 11:24 -38.07361 147.00031 1387 ft 265 kts 87°
2026-04-30 11:25 -38.09274 146.99249 547 ft 308 kts 281°
2026-04-30 11:25 -38.08890 146.96623 463 ft 302 kts 280°
2026-04-30 11:25 -38.08149 146.91711 1589 ft 259 kts 291°
2026-04-30 11:26 -38.06620 146.93105 1016 ft 292 kts 113°
2026-04-30 11:26 -38.07530 146.95487 665 ft 296 kts 116°
2026-04-30 11:26 -38.08432 146.96964 3303 ft 201 kts 152°
2026-04-30 11:27 -38.09449 146.98561 571 ft 320 kts 115°
2026-04-30 11:27 -38.09275 147.01062 927 ft 290 kts 42°
2026-04-30 11:27 -38.07481 147.01731 1495 ft 272 kts
2026-04-30 11:27 -38.05599 147.01684 1761 ft 276 kts 342°
2026-04-30 11:28 -38.05504 146.97546 911 ft 309 kts 211°
2026-04-30 11:28 -38.07564 146.96729 639 ft 304 kts 192°
2026-04-30 11:28 -38.08168 146.96535 4146 ft 111 kts
2026-04-30 11:29 -38.08406 146.96436 731 ft 305 kts 191°
2026-04-30 11:29 -38.10436 146.95959 1315 ft 280 kts 188°
2026-04-30 11:29 -38.13981 146.94703 1943 ft 252 kts 175°
2026-04-30 11:30 -38.14521 146.97869 1669 ft 254 kts 35°
2026-04-30 11:30 -38.12802 146.98162 1483 ft 261 kts 344°
2026-04-30 11:30 -38.11384 146.96821 1497 ft 261 kts 306°
2026-04-30 11:31 -38.10960 146.94677 1703 ft 256 kts 259°
2026-04-30 11:31 -38.11560 146.92691 2498 ft 223 kts 245°
2026-04-30 11:31 -38.12515 146.91356 2917 ft 221 kts 180°
2026-04-30 11:31 -38.13621 146.92684 2333 ft 248 kts 96°
2026-04-30 11:32 -38.13753 146.94824 2501 ft 244 kts 92°
2026-04-30 11:32 -38.13837 146.97026 2314 ft 253 kts 86°
2026-04-30 11:32 -38.13142 146.98945 2320 ft 249 kts 38°
2026-04-30 11:33 -38.10763 146.96974 1674 ft 275 kts 278°
2026-04-30 11:33 -38.10554 146.94591 1666 ft 270 kts 277°
2026-04-30 11:33 -38.10397 146.92193 1440 ft 274 kts 275°
2026-04-30 11:33 -38.10851 146.90117 1290 ft 266 kts 180°
2026-04-30 11:34 -38.11636 146.91846 1321 ft 248 kts 97°
2026-04-30 11:34 -38.11859 146.94027 1287 ft 250 kts 95°
2026-04-30 11:34 -38.12037 146.96231 1301 ft 250 kts 94°
2026-04-30 11:34 -38.12169 146.98424 1363 ft 248 kts 92°
2026-04-30 11:35 -38.11633 147.00262 1239 ft 247 kts 11°
2026-04-30 11:35 -38.10712 146.98688 1014 ft 259 kts 277°
2026-04-30 11:35 -38.10537 146.96462 1148 ft 253 kts 276°
2026-04-30 11:35 -38.10397 146.94210 1211 ft 253 kts 275°
2026-04-30 11:36 -38.10302 146.91988 1169 ft 256 kts 271°
2026-04-30 11:36 -38.11538 146.91206 907 ft 255 kts 135°
2026-04-30 11:36 -38.12012 146.93265 1051 ft 246 kts 96°
2026-04-30 11:36 -38.12227 146.95414 1108 ft 245 kts 95°
2026-04-30 11:37 -38.12412 146.97577 1113 ft 247 kts 94°
2026-04-30 11:37 -38.12572 146.99753 1157 ft 247 kts 94°
2026-04-30 11:37 -38.13647 147.00082 1179 ft 241 kts 261°
2026-04-30 11:37 -38.13278 146.98017 1222 ft 244 kts 286°
2026-04-30 11:38 -38.12999 146.95875 1358 ft 247 kts 280°
2026-04-30 11:38 -38.12752 146.93739 1488 ft 247 kts 279°
2026-04-30 11:38 -38.12521 146.91579 1682 ft 246 kts 279°
2026-04-30 11:38 -38.12306 146.89428 1856 ft 246 kts 278°
2026-04-30 11:39 -38.13130 146.89371 1747 ft 230 kts 91°
2026-04-30 11:39 -38.13201 146.91456 1858 ft 239 kts 91°
2026-04-30 11:39 -38.13274 146.93563 2145 ft 239 kts 91°
2026-04-30 11:39 -38.13344 146.95662 2528 ft 238 kts 91°
2026-04-30 11:40 -38.13410 146.97785 2739 ft 243 kts 90°
2026-04-30 11:40 -38.13472 146.99937 2896 ft 245 kts 90°
2026-04-30 11:40 -38.14222 147.01580 2708 ft 262 kts 186°
2026-04-30 11:40 -38.14614 146.99671 1683 ft 289 kts 308°
2026-04-30 11:41 -38.13173 146.99857 1671 ft 265 kts 84°
2026-04-30 11:41 -38.13851 147.02007 1670 ft 266 kts 116°
2026-04-30 11:41 -38.15229 147.03091 2202 ft 248 kts 195°
2026-04-30 11:41 -38.16167 147.01447 2427 ft 249 kts 265°
2026-04-30 11:42 -38.16352 146.99201 2528 ft 260 kts 266°
2026-04-30 11:42 -38.16461 146.97665 2535 ft 268 kts 267°
2026-04-30 11:42 -38.16221 146.94492 2723 ft 269 kts 287°
2026-04-30 11:42 -38.15802 146.93038 3029 ft 261 kts 296°
2026-04-30 11:43 -38.14452 146.90552 3492 ft 256 kts 315°
2026-04-30 11:43 -38.13056 146.89098 3572 ft 263 kts 328°
2026-04-30 11:43 -38.11993 146.88347 3680 ft 264 kts 335°
2026-04-30 11:43 -38.10257 146.88000 3641 ft 272 kts 34°
2026-04-30 11:44 -38.09951 146.90466 2546 ft 317 kts 99°
2026-04-30 11:44 -38.10476 146.93998 2433 ft 299 kts 100°
2026-04-30 11:44 -38.10753 146.95722 2363 ft 291 kts 101°
2026-04-30 11:44 -38.11176 146.98199 2295 ft 285 kts 101°
2026-04-30 11:45 -38.12286 147.00057 2321 ft 284 kts 168°
2026-04-30 11:45 -38.14209 146.99720 2438 ft 282 kts 195°
2026-04-30 11:45 -38.15976 146.98721 2576 ft 275 kts 230°
2026-04-30 11:45 -38.16107 146.96563 2901 ft 259 kts 306°
2026-04-30 11:46 -38.14956 146.94768 2877 ft 266 kts 311°
2026-04-30 11:46 -38.13742 146.93006 3101 ft 261 kts 313°
2026-04-30 11:46 -38.12521 146.91338 3416 ft 255 kts 315°
2026-04-30 11:46 -38.11276 146.89723 3556 ft 258 kts 316°
2026-04-30 11:47 -38.09968 146.88108 3585 ft 263 kts 317°
2026-04-30 11:47 -38.08745 146.87993 2995 ft 252 kts 77°
2026-04-30 11:47 -38.09569 146.88704 2767 ft 239 kts 274°
2026-04-30 11:47 -38.08534 146.88930 1890 ft 275 kts 93°
2026-04-30 11:48 -38.09102 146.91331 1684 ft 288 kts 107°
2026-04-30 11:48 -38.09789 146.93706 1862 ft 284 kts 111°
2026-04-30 11:48 -38.10585 146.96007 2001 ft 284 kts 115°
2026-04-30 11:48 -38.11959 146.97705 2353 ft 283 kts 162°
2026-04-30 11:49 -38.13744 146.97010 2275 ft 285 kts 233°
2026-04-30 11:49 -38.13891 146.94649 2104 ft 283 kts 301°
2026-04-30 11:49 -38.12226 146.93690 1790 ft 279 kts 13°
2026-04-30 11:49 -38.10957 146.95361 1886 ft 274 kts 75°
2026-04-30 11:50 -38.11118 146.97745 1825 ft 282 kts 112°
2026-04-30 11:50 -38.12477 146.99503 1660 ft 287 kts 159°
2026-04-30 11:50 -38.14355 146.99146 1669 ft 287 kts 218°
2026-04-30 11:50 -38.15073 146.96937 1697 ft 281 kts 280°
2026-04-30 11:51 -38.13950 146.95046 1624 ft 278 kts 337°
2026-04-30 11:51 -38.12084 146.95080 1646 ft 275 kts 22°
2026-04-30 11:51 -38.10484 146.96418 1633 ft 276 kts 37°
2026-04-30 11:51 -38.08973 146.97926 1647 ft 276 kts 39°
2026-04-30 11:52 -38.07514 146.99524 1606 ft 277 kts 41°
2026-04-30 11:52 -38.06077 147.01153 1557 ft 277 kts 41°
2026-04-30 11:52 -38.04558 147.02610 1645 ft 271 kts 19°
2026-04-30 11:52 -38.02858 147.01995 1609 ft 278 kts 307°
2026-04-30 11:53 -38.02937 146.99684 1370 ft 287 kts 227°
2026-04-30 11:53 -38.04749 146.99268 1225 ft 285 kts 154°
2026-04-30 11:53 -38.06076 147.01051 1175 ft 281 kts 117°
2026-04-30 11:53 -38.06976 147.03247 1091 ft 280 kts 116°
2026-04-30 11:54 -38.07905 147.05432 1109 ft 280 kts 118°
2026-04-30 11:54 -38.08811 147.07628 976 ft 282 kts 110°
2026-04-30 11:54 -38.09234 147.10089 517 ft 289 kts 98°
2026-04-30 11:54 -38.09542 147.12615 216 ft 289 kts 99°
2026-04-30 11:55 -38.09295 147.14625 807 ft 198 kts
2026-04-30 11:55 -38.08746 147.13520 850 ft 158 kts 279°
2026-04-30 11:55 -38.08613 147.12231 807 ft 144 kts 280°
2026-04-30 11:55 -38.08996 147.11206 633 ft 133 kts 179°
2026-04-30 11:56 -38.09455 147.12015 227 ft 120 kts 99°
2026-04-30 11:56 -38.09594 147.13051 49 ft 119 kts 98°
2026-04-30 11:56 -38.09709 147.13960 26 ft 91 kts 99°
2026-04-30 11:56 -38.09785 147.14583 20 ft 44 kts 99°
2026-04-30 11:57 -38.09828 147.14721 18 ft 12 kts 155°
2026-04-30 11:57 -38.09874 147.14681 18 ft 9 kts 234°
2026-04-30 11:57 -38.09911 147.14616 20 ft 9 kts 242°
2026-04-30 11:57 -38.09908 147.14531 22 ft 10 kts 279°
2026-04-30 11:58 -38.09896 147.14434 24 ft 13 kts 279°
2026-04-30 11:58 -38.09881 147.14317 25 ft 14 kts 278°
2026-04-30 11:58 -38.09867 147.14200 26 ft 13 kts 280°
2026-04-30 11:58 -38.09854 147.14093 28 ft 12 kts 279°
2026-04-30 11:59 -38.09883 147.14037 28 ft 10 kts 189°
2026-04-30 11:59 -38.09922 147.13996 28 ft 9 kts 284°
2026-04-30 11:59 -38.09910 147.13897 28 ft 13 kts 278°
2026-04-30 11:59 -38.09895 147.13779 26 ft 14 kts 278°
2026-04-30 12:00 -38.09881 147.13666 28 ft 12 kts 279°
2026-04-30 12:00 -38.09878 147.13599 26 ft 3 kts 207°
2026-04-30 12:00 -38.09900 147.13594 26 ft 0 kts 188°
2026-04-30 12:00 -38.09901 147.13594 26 ft 0 kts 188°